This is the latest recevied weather packets stored in our database for station/object NP4KB. If no packets are shown the sender has not sent any weather packets the latest 1 day(s).
| Time | Temp. | Humidity | Pressure | Rain* | Wind** | Luminosity | Snow |
|---|---|---|---|---|---|---|---|
| 1778020397 | - | - | - | 0 mm | 0 m/s | - | - |
| 1778020092 | - | - | - | 0 mm | 0.89 m/s, 177° | - | - |
| 1778019789 | - | - | - | 0 mm | 0 m/s | - | - |
| 1778019481 | - | - | - | 0 mm | 3.13 m/s, 142° | - | - |
| 1778019177 | - | - | - | 0 mm | 0 m/s | - | - |
| 1778018874 | - | - | - | 0 mm | 3.13 m/s, 149° | - | - |
| 1778018572 | - | - | - | 0 mm | 1.79 m/s, 180° | - | - |
| 1778018270 | - | - | - | 0 mm | 1.34 m/s, 193° | - | - |
| 1778017967 | - | - | - | 0 mm | 0 m/s | - | - |
| 1778017665 | - | - | - | 0 mm | 0.45 m/s, 206° | - | - |
| 1778017362 | - | - | - | 0 mm | 1.79 m/s, 204° | - | - |
| 1778017059 | - | - | - | 0 mm | 0 m/s | - | - |
| 1778016756 | - | - | - | 0 mm | 1.79 m/s, 182° | - | - |
| 1778016452 | - | - | - | 0 mm | 3.13 m/s, 184° | - | - |
| 1778016150 | - | - | - | 0 mm | 1.34 m/s, 195° | - | - |
| 1778015847 | - | - | - | 0 mm | 1.34 m/s, 182° | - | - |
| 1778015544 | - | - | - | 0 mm | 1.34 m/s, 218° | - | - |
| 1778015240 | - | - | - | 0 mm | 0.45 m/s, 155° | - | - |
| 1778014937 | - | - | - | 0 mm | 2.68 m/s, 104° | - | - |
| 1778014635 | - | - | - | 0 mm | 0.89 m/s, 217° | - | - |
| 1778014333 | - | - | - | 0 mm | 2.24 m/s, 199° | - | - |
| 1778014028 | - | - | - | 0 mm | 1.34 m/s, 169° | - | - |
| 1778013726 | - | - | - | 0 mm | 0.89 m/s, 188° | - | - |
| 1778013418 | - | - | - | 0 mm | 1.79 m/s, 105° | - | - |
| 1778013114 | - | - | - | 0 mm | 3.13 m/s, 129° | - | - |
* Rain latest hour (hover to see other rain measurements)
** Current wind speed in m/s (hover to see current wind gust speed)